Hourly Data Report for October 12, 2013

All times are specified in Local Standard Time (LST). Add 1 hour to adjust for Daylight Saving Time where and when it is observed.

SAINT JOHN A
NEW BRUNSWICK

45°18'58.000" N
65°53'24.000" W
108.80 m
8104901
71609
YSJ

Download Data

Hourly Data (October 2013)
Hourly Data Report for October 12, 2013
Temp Definition
°C
Dew Point Temp Definition
°C
Rel Hum Definition
%
Wind Dir Definition
10's deg

Wind Spd Definition
km/h
Visibility Definition
km
Stn Press Definition
kPa
Hmdx Definition


Wind Chill Definition


Weather Definition


TIME
00:00 Legend Double Dagger 9.7 8.5 92 4 13 24.1 101.13     LegendNANA
01:00 Legend Double Dagger 7.5 6.9 96 4 12 24.1 101.18     LegendNANA
02:00 Legend Double Dagger 6.2 5.6 96 3 11 24.1 101.21     Clear
03:00 Legend Double Dagger 5.2 4.9 98 4 8 24.1 101.27     LegendNANA
04:00 Legend Double Dagger 5.7 5.0 95 3 13 24.1 101.33     LegendNANA
05:00 Legend Double Dagger 4.7 4.3 97 4 12 24.1 101.41     Clear
06:00 Legend Double Dagger 4.1 3.7 97 5 5 24.1 101.47     LegendNANA
07:00 Legend Double Dagger 2.1 2.0 99 3 11 24.1 101.55     LegendNANA
08:00 Legend Double Dagger 6.6 4.6 87 4 15 24.1 101.62     Mainly Clear
09:00 Legend Double Dagger 8.9 4.9 76 2 15 24.1 101.64     LegendNANA
10:00 Legend Double Dagger 10.5 2.9 59 3 18 24.1 101.65     LegendNANA
11:00 Legend Double Dagger 11.6 1.9 51 1 21 24.1 101.65     Mainly Clear
12:00 Legend Double Dagger 12.4 1.5 47 3 14 24.1 101.64     LegendNANA
13:00 Legend Double Dagger 13.4 1.8 45 3 21 24.1 101.60     LegendNANA
14:00 Legend Double Dagger 13.8 1.8 44 1 22 24.1 101.58     Mainly Clear
15:00 Legend Double Dagger 12.9 2.5 49 36 9 24.1 101.57     LegendNANA
16:00 Legend Double Dagger 12.0 4.5 60 13 14 24.1 101.60     LegendNANA
17:00 Legend Double Dagger 10.1 3.9 65 10 15 24.1 101.61     Mainly Clear
18:00 Legend Double Dagger 7.3 3.6 77 11 4 24.1 101.64     LegendNANA
19:00 Legend Double Dagger 4.5 2.9 89 5 4 24.1 101.70     LegendNANA
20:00 Legend Double Dagger 3.1 1.6 90 35 4 24.1 101.73     Clear
21:00 Legend Double Dagger 1.3 0.7 96 4 3 24.1 101.71     LegendNANA
22:00 Legend Double Dagger -0.4 -0.8 97 1 4 24.1 101.74   -2 LegendNANA
23:00 Legend Double Dagger -0.6 -1.5 94 7 4 24.1 101.76   -2 Clear

Notes on Data Quality.

Legend

  • E = Estimated
  • M = Missing
  • NA = Not Available
  • ‡ = Partner data that is not subject to review by the National Climate Archives
Date modified: